Location: Hackberry
(29.5783°N, 96.8797°W)
Time: 03:20:44
(UTC+00:00)

Courier 1B - Pass Details

Date: 12 November 2024
Orbit: 962 x 1208 km, 28.3° (Epoch: 03 December)

Event Time Altitude Azimuth Distance (km) Brightness Sun altitude
Rises 02:20:59 0° 275° (W) 3,672 11.5 -36.4°
Reaches altitude 10° 02:23:47 10° 268° (W) 2,747 10.6 -37.0°
Enters shadow 02:28:33 35° 226° (SW) 1,587 8.8 -38.1°
